Regional Weather Roundup
Issued by NWS

Home | Current Version | Previous Version | Text Only | Print | Product List | Glossary Off
Versions: 1 2 3 4 5 6 7 8 9 10 11 12 13 14 15 16 17 18 19 20 21 22 23 24 25 26 27 28 29 30 31 32 33 34 35 36 37 38 39 40 41 42 43 44 45 46 47 48 49 50

000
ASUS43 KMPX 021610
RWRMN
WEATHER ROUNDUP FOR MINNESOTA
NATIONAL WEATHER SERVICE TWIN CITIES/CHANHASSEN MN
1000 AM CST FRI DEC 02 2016


NOTE: "FAIR" INDICATES FEW OR NO CLOUDS BELOW 12,000 FEET WITH NO
SIGNIFICANT WEATHER AND/OR OBSTRUCTIONS TO VISIBILITY. N/A MEANS
CURRENT SKY AND/OR WEATHER CONDITIONS ARE NOT AVAILABLE.

MNZ060>063-068>070-021700-
   Twin Cities Metro

CITY           SKY/WX    TMP DP  RH WIND       PRES   REMARKS
TWIN CITIES    CLOUDY    32  22  66 NW8       30.22R WCI  25
ST PAUL        CLOUDY    32  24  72 NW8       30.23R WCI  25
CRYSTAL        CLOUDY    32  22  66 NW9       30.21R WCI  24
BLAINE         CLOUDY    34  25  69 NW8       30.21R WCI  27
LAKEVILLE      CLOUDY    30  23  74 W6        30.21R WCI  24
EDEN PRAIRIE   CLOUDY    33  22  63 NW7       30.21R WCI  27
SOUTH ST PAUL  CLOUDY    32  23  67 W7        30.22R WCI  26
LAKE ELMO      CLOUDY    32  27  80 W8        30.22R WCI  25
$$
MNZ001>005-007-008-013>017-022>024-027-028-021700-
   Northwest Minnesota

CITY           SKY/WX    TMP DP  RH WIND       PRES   REMARKS
BEMIDJI        CLOUDY    22  19  89 NW9       30.21R WCI  12
HALLOCK        CLOUDY    28  25  86 NW7       30.25R WCI  21
ROSEAU         CLOUDY    27  21  80 CALM      30.22R
WARROAD        CLOUDY    23  19  86 NW6       30.22R WCI  16
THIEF RVR FALL CLOUDY    26  22  84 NW7       30.24R WCI  18
CROOKSTON      CLOUDY    28  23  80 NW8       30.26R WCI  20
FOSSTON        CLOUDY    23  18  80 NW6       30.23R WCI  16
DETROIT LAKES  CLOUDY    27  23  86 N8        30.23R WCI  18
MOORHEAD       CLOUDY    27  21  80 NW7       30.27R WCI  19
PARK RAPIDS    CLOUDY    24  18  77 NW10      30.20R WCI  14
$$
MNZ006-009>011-018-025>026-021700-
   North Central Minnesota

CITY           SKY/WX    TMP DP  RH WIND       PRES   REMARKS
BAUDETTE       CLOUDY    22  20  92 W6        30.20R WCI  14
FLAG ISLAND    CLOUDY    21  19  93 NW9       30.20R WCI  11
INTL FALLS     CLOUDY    26  22  84 W5        30.18R WCI  20
WASKISH        CLOUDY    21  19  93 W7        30.21R WCI  13
BIG FORK       CLOUDY    25  21  86 NW3       30.19R
LONGVILLE      CLOUDY    25  21  86 W3        30.20R
GRAND RAPIDS   CLOUDY    26  23  88 NW7       30.20R WCI  18
CRANE LAKE     CLOUDY    23  21  93 CALM      30.20R
ORR            CLOUDY    25  21  86 CALM      30.15R
COOK           CLOUDY    25  21  86 N5        30.18R WCI  19
$$
MNZ012-019>021-037-021700-
   Northeast Minnesota

CITY           SKY/WX    TMP DP  RH WIND       PRES   REMARKS
DULUTH         CLOUDY    27  22  81 NW10      30.15R WCI  17
ELY            CLOUDY    21  21 100 NW5       30.16R WCI  15
HIBBING        CLOUDY    25  21  85 NW9       30.17R WCI  15
EVELETH        CLOUDY    25  21  85 NW7       30.18R WCI  17
DULUTH HARBOR  CLOUDY    30  25  80 W12       30.21R WCI  21
TWO HARBORS    CLOUDY    30  25  80 CALM      30.15R
SILVER BAY     CLOUDY    30  23  74 NW3       30.14R
GRAND MARAIS     N/A     32  24  72 VRB5      30.13R WCI  27
G MARAIS ARPRT CLOUDY    25  18  74 NW7       30.08R WCI  17
$$
MNZ029>031-032-039>041-046>048-054>057-064-021700-
   West Central Minnesota

CITY           SKY/WX    TMP DP  RH WIND       PRES   REMARKS
FERGUS FALLS   CLOUDY    27  21  80 N8        30.28R WCI  18
WHEATON        CLOUDY   N/A N/A N/A N9        30.28R
MORRIS         CLOUDY    28  21  74 N8        30.23R WCI  20
ALEXANDRIA     CLOUDY    26  21  81 N8        30.23R WCI  18
ELBOW LAKE     CLOUDY    26  21  82 CALM      30.24R
WADENA         CLOUDY    25  19  80 NW6       30.21R WCI  18
GLENWOOD       CLOUDY    27  21  80 W7        30.22R WCI  19
APPLETON       CLOUDY    30  21  69 N7        30.26R WCI  23
BENSON         CLOUDY    28  21  74 N8        30.24R WCI  20
ORTONVILLE     CLOUDY    28  21  74 CALM      30.25R
MADISON        CLOUDY    30  25  80 NW9       30.26R WCI  22
WILLMAR        CLOUDY    28  23  80 NW12      30.25R WCI  18
$$
MNZ033>034-036-042>043-049>051-058-059-021700-
   Central Minnesota

CITY           SKY/WX    TMP DP  RH WIND       PRES   REMARKS
ST CLOUD       CLOUDY    29  23  78 NW9       30.22R WCI  20
PAYNESVILLE    CLOUDY    29  23  78 NW6       30.22R WCI  23
AITKIN         CLOUDY    28  21  74 NW6       30.18R WCI  22
PINE RIVER     CLOUDY    25  21  86 W3        30.23R
BRAINERD       CLOUDY    25  20  81 NW7       30.21R WCI  17
STAPLES        CLOUDY    25  19  80 NW6       30.21R WCI  18
LONG PRAIRIE   CLOUDY    27  21  80 W6        30.22R WCI  20
LITTLE FALLS   CLOUDY    28  21  74 N5        30.22R WCI  23
LITCHFIELD     CLOUDY    30  23  74 NW5       30.23R WCI  25
BUFFALO        CLOUDY    30  23  74 W7        30.23R WCI  24
MAPLE LAKE     CLOUDY    31  26  79 NW7       30.23R WCI  25
$$
MNZ037-044-045-052-053-021700-
   East Central Minnesota

CITY           SKY/WX    TMP DP  RH WIND       PRES   REMARKS
PRINCETON      CLOUDY    30  25  80 NW5       30.22R WCI  25
MORA           CLOUDY    30  23  74 NW6       30.22R WCI  24
CAMBRIDGE      CLOUDY    32  21  64 NW8       30.20R WCI  25
RUSH CITY      CLOUDY    30  23  74 NW6       30.21R WCI  24
MOOSE LAKE     CLOUDY    30  23  74 NW6       30.17R WCI  24
HINCKLEY       CLOUDY    30  27  86 NW5       30.20R WCI  25
CLOQUET        CLOUDY    27  21  80 NW5       30.17R WCI  21
MCGREGOR       CLOUDY    28  25  86 NW7       30.19R WCI  21
$$
MNZ071>073-080-081-089-090-097-098-021700-
   Southwest Minnesota

CITY           SKY/WX    TMP DP  RH WIND       PRES   REMARKS
MONTEVIDEO     CLOUDY    28  27  93 N7        30.27R WCI  21
GRANITE FALLS  CLOUDY    31  24  77 NW6       30.27R WCI  25
CANBY          CLOUDY    30  25  81 CALM      30.27R
MARSHALL       CLOUDY    28  23  81 NW8       30.25R WCI  20
REDWOOD FALLS  CLOUDY    30  21  69 NW7       30.25R WCI  23
OLIVIA         CLOUDY    30  23  74 NW7       30.24R WCI  23
PIPESTONE      CLOUDY    30  25  80 N6        30.21S WCI  24
WINDOM         CLOUDY    30  27  86 CALM      30.23R
WORTHINGTON    CLOUDY    30  24  78 NW12      30.23R WCI  20
JACKSON        CLOUDY    30  27  86 N8        30.23R WCI  23
TRACY          CLOUDY    30  25  81 N12       30.24R WCI  20
SLAYTON        CLOUDY    28  25  87 N6        30.23R WCI  21
$$
MNZ065>067-074>077-082>085-091>093-021700-
   South Central Minnesota

CITY           SKY/WX    TMP DP  RH WIND       PRES   REMARKS
NEW ULM        CLOUDY    28  21  74 N9        30.24R WCI  20
ST JAMES       CLOUDY    30  25  80 W10       30.25R WCI  21
FAIRMONT       CLOUDY    31  26  82 N9        30.24R WCI  23
GLENCOE        CLOUDY    32  26  78 W10       30.22R WCI  23
FARIBAULT      CLOUDY    30  23  74 W6        30.22R WCI  24
OWATONNA       CLOUDY    30  21  69 NW10      30.22R WCI  21
WASECA         CLOUDY    32  27  80 NW8       30.23R WCI  25
ALBERT LEA     CLOUDY    34  27  75 NW7       30.22R WCI  28
$$
MNZ078>079-086>088-094>096-021700-
   Southeast Minnesota

CITY           SKY/WX    TMP DP  RH WIND       PRES   REMARKS
ROCHESTER      CLOUDY    30  23  75 NW10      30.20R WCI  21
RED WING       CLOUDY    34  21  60 W3        30.21R
STANTON        CLOUDY    32  24  71 NW6       30.21R WCI  26
DODGE CENTER   CLOUDY    28  23  80 N7        30.20R WCI  21
WINONA         CLOUDY    34  27  75 NW7       30.22R WCI  28
AUSTIN         CLOUDY    30  21  69 NW12G18   30.21R WCI  21
PRESTON        CLOUDY    29  22  74 NW10      30.20R WCI  20
$$
ABBREVIATIONS USED IN REMARKS
   TC - TEMPERATURES IN CELSIUS
  WCI - WIND CHILL INDEX
   HX - HEAT INDEX
  VSB - VISIBILITY
$$




USA.gov is the U.S. government's official web portal to all federal, state and local government web resources and services.